Location: Observatoire
(46.1952°N, 5.3391°E)
Time: 19:32:29
(UTC+01:00)

Explorer 7 - Pass Details

Date: 24 February 2026
Orbit: 430 x 541 km, 50.2° (Epoch: 10 March)

Event Time Altitude Azimuth Distance (km) Brightness Sun altitude
Rises 18:11:01 0° 293° (WNW) 2,474 11.1 0.3°
Reaches altitude 10° 18:13:07 10° 292° (WNW) 1,616 10.2 -0.1°
Maximum altitude 18:16:46 76° 207° (SSW) 494 6.8 -0.7°
Drops below altitude 10° 18:20:33 10° 121° (ESE) 1,678 8.9 -1.3°
Sets 18:22:47 0° 120° (ESE) 2,579 9.8 -1.7°
